Location: Islay
(41.3172°N, 105.1346°W)
Time: 19:03:51
(UTC+00:00)

ACS3 Solar Sail - Pass Details

Date: 20 April 2026
Orbit: 894 x 947 km, 97.2° (Epoch: 12 May)

Event Time Altitude Azimuth Distance (km) Brightness Sun altitude
Rises 07:52:40 0° 14° (NNE) 3,547 5.8 -35.7°
Reaches altitude 10° 07:55:07 10° 18° (NNE) 2,609 4.8 -35.6°
Enters shadow 07:59:13 44° 40° (NE) 1,245 2.6 -35.4°
